Voltar ao catálogo

FENGYUN 1C DEB

AtivoSSO
NORAD 29929·DEBRIS·🇨🇳 China

Lançado May 10, 1999 de Taiyuan Satellite Launch Center

Loading…

Próximas Passagens (próximas 24 horas)

TLE

AtualizadoSource: Space-Track

Época: Sep 14, 2026, 05:43 UTC

1 29929U 99025JB  26257.23872588  .00000871  00000-0  54948-3 0  9990
2 29929  98.6197 166.7847 0131020 124.0362  27.3194 14.02440441998160

Acompanhe FENGYUN 1C DEB em tempo real com AllMySat

Download on the App Store